Location: Castle Hill Houses
(40.8186°N, 73.8497°W)
Time: 16:41:54
(UTC+00:00)

Cosmos 2181 Rocket - Pass Details

Date: 26 January 2020
Orbit: 952 x 1014 km, 82.9° (Epoch: 25 February)

Event Time Altitude Azimuth Distance (km) Brightness Sun altitude
Rises 09:54:37 0° 182° (S) 3,639 7.0 -25.8°
Reaches altitude 10° 09:57:06 10° 181° (S) 2,705 6.3 -25.4°
Maximum altitude 10:03:18 81° 96° (E) 997 4.0 -24.2°
Drops below altitude 10° 10:09:39 10° 9° (N) 2,766 6.4 -23.0°
Sets 10:12:12 0° 9° (N) 3,727 7.1 -22.5°
